Location: Pine Mountain Observatory
(43.7910°N, 120.9377°W)
Time: 08:17:15
(UTC-08:00)

APEX - Visible Passes

Search period start: 29 January 2015 00:00
Search period end: 08 February 2015 00:00
Orbit: 338 x 1361 km, 69.9° (Epoch: 28 January)

Date Brightness Start Highest point End Pass type
(mag) Time Alt. Az. Time Alt. Az. Time Alt. Az.
29 Jan 6.6 03:17:27 23° NE 03:18:29 23° NE 03:24:31 10° E visible
29 Jan 4.8 04:59:28 28° NNW 05:03:39 88° ENE 05:11:57 10° SSE visible
29 Jan 6.1 06:42:30 10° NW 06:47:49 21° WSW 06:53:20 10° SW visible
30 Jan 6.6 03:05:40 24° NE 03:05:45 24° NE 03:11:52 10° E visible
30 Jan 4.8 04:47:41 37° NNW 04:50:57 88° ENE 04:59:16 10° SSE visible
30 Jan 6.1 06:29:43 10° NW 06:35:05 21° WSW 06:40:39 10° SW visible
30 Jan 5.1 19:41:14 10° SW 19:42:34 23° SW 19:42:34 23° SW visible
31 Jan 6.7 02:53:59 23° ENE 02:53:59 23° ENE 02:59:08 10° E visible
31 Jan 4.8 04:36:01 51° NNW 04:38:11 88° ENE 04:46:31 10° SSE visible
31 Jan 6.1 06:18:03 14° WNW 06:22:18 21° WSW 06:27:54 10° SW visible
31 Jan 3.7 19:28:18 10° SW 19:31:28 58° W 19:31:28 58° W visible
01 Feb 6.9 02:42:25 21° ENE 02:42:25 21° ENE 02:46:19 10° E visible
01 Feb 4.8 04:24:27 73° NNW 04:25:20 88° ENE 04:33:42 10° SSE visible
01 Feb 6.1 06:06:29 18° WNW 06:09:27 22° WSW 06:15:06 10° SW visible
01 Feb 3.7 19:15:18 10° SW 19:18:45 60° WNW 19:20:17 35° N visible
02 Feb 7.1 02:30:58 17° E 02:30:58 17° E 02:33:27 10° E visible
02 Feb 4.9 04:13:01 79° SE 04:13:01 79° SE 04:20:49 10° SSE visible
02 Feb 6.0 05:55:03 21° W 05:56:31 22° WSW 06:02:13 10° SW visible
02 Feb 3.7 19:02:14 10° SW 19:05:44 61° WNW 19:08:55 18° NNE visible
03 Feb 7.3 02:19:38 13° E 02:19:38 13° E 02:20:30 10° E visible
03 Feb 5.4 04:01:41 53° SSE 04:01:41 53° SSE 04:07:52 10° SSE visible
03 Feb 6.1 05:43:45 22° WSW 05:43:45 22° WSW 05:49:17 10° SW visible
03 Feb 3.8 18:49:06 10° SW 18:52:38 62° WNW 18:57:21 10° NNE visible
03 Feb 6.7 20:38:00 10° NW 20:38:34 10° NNW 20:38:59 10° NNW visible
04 Feb 6.1 03:50:28 34° SSE 03:50:28 34° SSE 03:54:50 10° SSE visible
04 Feb 6.3 05:32:32 20° WSW 05:32:32 20° WSW 05:36:17 10° SSW visible
04 Feb 3.8 18:35:54 10° SW 18:39:29 63° WNW 18:44:16 10° NNE visible
04 Feb 6.7 20:24:26 10° NW 20:25:24 10° NNW 20:26:16 10° NNW visible
05 Feb 6.7 03:39:18 21° SSE 03:39:18 21° SSE 03:41:45 10° SSE visible
05 Feb 6.6 05:21:21 15° SW 05:21:21 15° SW 05:23:12 10° SSW visible
05 Feb 3.8 18:22:37 10° SW 18:26:15 64° WNW 18:31:06 10° NNE visible
05 Feb 6.7 20:10:54 10° NW 20:12:10 11° NNW 20:13:20 10° NNW visible
06 Feb 7.2 03:28:08 12° SSE 03:28:08 12° SSE 03:28:35 10° SSE visible
06 Feb 3.9 18:09:17 10° SW 18:12:57 65° WNW 18:17:53 10° NNE visible
06 Feb 6.7 19:57:22 10° NW 19:58:52 11° NNW 20:00:17 10° NNW visible
07 Feb 3.9 17:55:53 10° SW 17:59:36 66° WNW 18:04:36 10° NNE visible
07 Feb 6.7 19:43:49 10° NW 19:45:30 11° NNW 19:47:09 10° NNW visible
